SAUDISAT 1C (SO-50) (27607 NORAD) Tracking and Keplerian Element Data

This shows tracking and keplerian element data for the satellite.

Feedback or suggestion? Click here.




ElementValue
Catalog27607
NameSAUDISAT 1C (SO-50)
Epoch Orbit965
Epoch Day269.67643524
Epoch Year2021
RAAN28.7985
Inclination64.5569
Eccentricity0.0053237
Argument of Perigee351.2268
Mean Anonmoly8.7898
Mean Motion14.75792595
Decay Rate1.45E-06
L11 27607U 02058C 21269.67643524 .00000145 00000-0 41205-4 0 9990
L22 27607 64.5569 28.7985 0053237 351.2268 8.7898 14.75792595 9659

Live tracking and technical data element details for SAUDISAT 1C (SO-50) (NORAD 27607). SAUDISAT 1C (SO-50) can be tracked NOW for your location showing map with azimuth and elevation plus other details from your city location.

Track the satellite on the map from your city or location and see movement details for azimuth, elevation, latitude, longitude, range, height, and movement on the map or in text.







IsCatalogInMostPopularTable: catalog: 27607, numindb: 556
Update: records affected: 1



GetName: 27607 SAUDISAT 1C (SO-50)

Hit Count: updated at: Tue, 28 Sep 2021 16:22:27 GMT